TimePDT,TemperatureF,Dew PointF,Humidity,Sea Level PressureIn,VisibilityMPH,Wind Direction,Wind SpeedMPH,Gust SpeedMPH,PrecipitationIn,Events,Conditions,WindDirDegrees,DateUTC
12:53 AM,57.9,48.0,70,30.06,10.0,NNW,5.8,-,N/A,,Clear,340,2013-07-05 07:53:00
1:53 AM,57.0,48.0,72,30.05,10.0,North,3.5,-,N/A,,Clear,10,2013-07-05 08:53:00
2:53 AM,52.0,46.0,80,30.05,10.0,Calm,Calm,-,N/A,,Clear,0,2013-07-05 09:53:00
3:53 AM,52.0,48.9,89,30.05,10.0,Calm,Calm,-,N/A,,Clear,0,2013-07-05 10:53:00
4:53 AM,51.1,48.0,89,30.05,10.0,Calm,Calm,-,N/A,,Mostly Cloudy,0,2013-07-05 11:53:00
5:38 AM,53.6,50.0,88,30.05,10.0,SW,3.5,-,N/A,,Overcast,230,2013-07-05 12:38:00
5:53 AM,54.0,50.0,86,30.05,10.0,Calm,Calm,-,N/A,,Overcast,0,2013-07-05 12:53:00
6:07 AM,55.4,50.0,82,30.05,10.0,Calm,Calm,-,N/A,,Overcast,0,2013-07-05 13:07:00
6:27 AM,55.4,50.0,82,30.05,10.0,Calm,Calm,-,N/A,,Overcast,0,2013-07-05 13:27:00
6:51 AM,55.4,51.8,88,30.05,10.0,Calm,Calm,-,N/A,,Overcast,0,2013-07-05 13:51:00
6:53 AM,55.9,51.1,84,30.05,10.0,Calm,Calm,-,N/A,,Overcast,0,2013-07-05 13:53:00
7:53 AM,59.0,51.1,75,30.06,10.0,Calm,Calm,-,N/A,,Overcast,0,2013-07-05 14:53:00
8:53 AM,61.0,51.1,70,30.06,10.0,East,3.5,-,N/A,,Overcast,90,2013-07-05 15:53:00
9:42 AM,60.8,51.8,72,30.06,10.0,Calm,Calm,-,N/A,,Overcast,0,2013-07-05 16:42:00
9:53 AM,62.1,51.1,67,30.05,10.0,East,3.5,-,N/A,,Overcast,80,2013-07-05 16:53:00
10:53 AM,63.0,52.0,67,30.05,10.0,Calm,Calm,-,N/A,,Overcast,0,2013-07-05 17:53:00
11:53 AM,64.9,52.0,63,30.05,10.0,Calm,Calm,-,N/A,,Overcast,0,2013-07-05 18:53:00
12:08 PM,64.4,51.8,64,30.05,10.0,ENE,3.5,-,N/A,,Overcast,60,2013-07-05 19:08:00
12:19 PM,66.2,53.6,64,30.04,10.0,Calm,Calm,-,N/A,,Overcast,0,2013-07-05 19:19:00
12:53 PM,64.9,53.1,65,30.05,10.0,ENE,3.5,-,N/A,,Overcast,60,2013-07-05 19:53:00
1:53 PM,68.0,54.0,61,30.03,10.0,Variable,3.5,-,N/A,,Overcast,0,2013-07-05 20:53:00
2:53 PM,71.1,54.0,55,30.01,10.0,NNE,4.6,-,N/A,,Clear,30,2013-07-05 21:53:00
3:53 PM,72.0,54.0,53,29.99,10.0,NE,6.9,-,N/A,,Partly Cloudy,40,2013-07-05 22:53:00
4:53 PM,73.0,55.0,53,29.97,10.0,East,8.1,-,N/A,,Scattered Clouds,80,2013-07-05 23:53:00
5:53 PM,73.9,51.1,45,29.95,10.0,North,10.4,-,N/A,,Mostly Cloudy,350,2013-07-06 00:53:00
6:53 PM,73.0,51.1,46,29.94,10.0,NNW,9.2,-,N/A,,Clear,330,2013-07-06 01:53:00
7:53 PM,70.0,52.0,53,29.95,10.0,NW,4.6,-,N/A,,Clear,310,2013-07-06 02:53:00
8:53 PM,64.9,50.0,58,29.96,10.0,NW,6.9,-,N/A,,Clear,320,2013-07-06 03:53:00
9:53 PM,62.1,50.0,65,29.97,10.0,Variable,5.8,-,N/A,,Clear,0,2013-07-06 04:53:00
10:53 PM,60.1,48.9,67,29.98,10.0,NNW,11.5,-,N/A,,Clear,330,2013-07-06 05:53:00
11:53 PM,57.9,48.9,72,29.98,10.0,North,8.1,-,N/A,,Clear,350,2013-07-06 06:53:00